KF5PJP Weather Reports


time (UTC)temp
C
wind
direction
speed
KPH
gust
KPH
rain 1hr
cm
rain 24hr
cm
rain mn
cm
humidity
%
barometer
mb
20260509173417 28 79 1.6 4.8 0.00 0.00 0.00 71 1010.0
20260509171917 28 97 0.0 4.8 0.00 0.00 0.00 73 1010.1
20260509170918 27 104 0.0 4.8 0.00 0.00 0.00 76 1009.9
20260509165904 27 98 0.0 4.8 0.00 0.00 0.00 76 1009.9
20260509165430 27 98 0.0 4.8 0.00 0.00 0.00 75 1010.0
20260509164851 27 96 0.0 4.8 0.00 0.00 0.00 76 1010.0
20260509164415 27 72 1.6 6.4 0.00 0.00 0.00 74 1010.0
20260509163410 27 121 0.0 0.0 0.00 0.00 0.00 74 1010.0
20260509162931 27 99 0.0 6.4 0.00 0.00 0.00 76 1009.9
20260509162414 27 99 1.6 6.4 0.00 0.00 0.00 74 1010.0
20260509161929 27 91 1.6 6.4 0.00 0.00 0.00 73 1010.0
20260509160905 27 107 1.6 4.8 0.00 0.00 0.00 74 1009.8
20260509155921 26 120 1.6 3.2 0.00 0.00 0.00 77 1009.9
20260509155457 26 109 0.0 3.2 0.00 0.00 0.00 80 1009.9
20260509154911 26 88 0.0 0.0 0.00 0.00 0.00 80 1009.9
20260509153916 26 78 0.0 0.0 0.00 0.00 0.00 83 1009.9
20260509153428 25 273 0.0 0.0 0.00 0.00 0.00 85 1009.9
20260509152416 24 124 0.0 4.8 0.00 0.00 0.00 90 1009.8
20260509151943 23 86 0.0 4.8 0.00 0.00 0.00 90 1009.7
20260509150922 23 105 0.0 0.0 0.00 0.00 0.00 92 1009.9
20260509150429 23 102 0.0 0.0 0.00 0.00 0.00 92 1009.9
20260509145933 22 102 0.0 0.0 0.00 0.00 0.00 92 1010.0
20260509144454 22 102 0.0 0.0 0.00 0.00 0.00 92 1010.2
20260509144001 22 102 0.0 0.0 0.00 0.00 0.00 92 1010.2
20260509142937 22 102 0.0 0.0 0.00 0.00 0.00 92 1010.3
20260509142350 22 102 0.0 0.0 0.00 0.00 0.00 92 1010.3
20260509141402 22 102 0.0 0.0 0.00 0.00 0.00 92 1010.3
20260509140412 22 113 0.0 1.6 0.00 0.00 0.00 92 1010.2
20260509135949 22 113 0.0 3.2 0.00 0.00 0.00 92 1010.2
20260509135352 22 96 1.6 3.2 0.00 0.00 0.00 92 1010.1
20260509134922 22 98 0.0 3.2 0.00 0.00 0.00 93 1010.1
20260509133916 22 136 0.0 1.6 0.00 0.00 0.00 93 1010.0
20260509133428 22 90 0.0 1.6 0.00 0.00 0.00 94 1010.0
20260509132411 22 90 0.0 3.2 0.00 0.00 0.00 94 1009.9
20260509131924 21 91 0.0 0.0 0.00 0.00 0.00 94 1010.1
20260509130850 21 91 0.0 3.2 0.00 0.00 0.00 94 1010.2
20260509130420 21 82 0.0 1.6 0.00 0.00 0.00 94 1010.1
20260509125422 21 82 0.0 3.2 0.00 0.00 0.00 95 1010.0
20260509124400 21 80 1.6 3.2 0.00 0.00 0.00 94 1009.9
20260509123935 21 60 0.0 3.2 0.00 0.00 0.00 94 1009.9
20260509122906 21 79 0.0 6.4 0.00 0.00 0.00 94 1010.0
20260509122436 21 78 0.0 6.4 0.00 0.00 0.00 94 1009.9
20260509121853 21 82 0.0 3.2 0.00 0.00 0.00 94 1009.8
20260509120901 21 81 0.0 1.6 0.00 0.00 0.00 94 1009.5
20260509120443 21 81 0.0 0.0 0.00 0.00 0.00 94 1009.2
20260509115418 21 80 0.0 0.0 0.00 0.00 0.00 94 1009.3
20260509114944 21 80 0.0 1.6 0.00 0.00 0.00 94 1009.3
20260509114358 21 80 0.0 1.6 0.00 0.00 0.00 94 1009.2
20260509113413 21 80 0.0 3.2 0.00 0.00 0.00 94 1009.3
20260509112412 21 93 0.0 3.2 0.00 0.00 0.00 94 1008.9
20260509111856 21 94 0.0 3.2 0.00 0.00 0.00 94 1008.8
20260509111424 21 98 0.0 3.2 0.00 0.00 0.00 94 1008.7
20260509110912 21 98 0.0 3.2 0.00 0.00 0.00 94 1008.6
20260509105928 21 211 0.0 0.0 0.00 0.00 0.00 94 1008.2
20260509104909 21 297 0.0 0.0 0.00 0.00 0.00 94 1008.1
20260509103855 21 297 0.0 0.0 0.00 0.00 0.00 94 1008.3
20260509103405 21 101 0.0 0.0 0.00 0.00 0.00 94 1008.4
20260509102418 21 101 0.0 1.6 0.00 0.00 0.00 94 1008.6
20260509101420 21 117 0.0 0.0 0.00 0.00 0.00 94 1008.5
20260509100959 21 117 0.0 0.0 0.00 0.00 0.00 93 1008.6
20260509100409 21 117 0.0 0.0 0.00 0.00 0.00 93 1008.7
20260509095939 21 117 0.0 1.6 0.00 0.00 0.00 93 1008.8
20260509095349 21 117 0.0 3.2 0.00 0.00 0.00 93 1008.8
20260509094915 21 117 0.0 6.4 0.00 0.00 0.00 93 1009.1
20260509094456 21 100 0.0 1.6 0.00 0.00 0.00 93 1009.1
20260509093857 21 100 0.0 1.6 0.00 0.00 0.00 93 1009.0
20260509093431 21 113 0.0 0.0 0.00 0.00 0.00 93 1009.1
20260509092422 21 130 0.0 1.6 0.00 0.00 0.00 93 1009.1
20260509091945 21 138 0.0 1.6 0.00 0.00 0.00 92 1009.2
20260509091433 21 142 0.0 0.0 0.00 0.00 0.00 92 1009.0
20260509090418 21 142 0.0 0.0 0.00 0.00 0.00 92 1008.8
20260509085413 21 142 0.0 1.6 0.00 0.00 0.00 92 1008.9
20260509084409 21 228 0.0 3.2 0.00 0.00 0.00 91 1008.9
20260509083359 21 257 0.0 0.0 0.00 0.00 0.00 91 1008.9
20260509082411 21 257 0.0 0.0 0.00 0.00 0.00 91 1009.4
20260509081407 21 259 0.0 0.0 0.00 0.00 0.00 90 1009.7
20260509080417 21 259 0.0 0.0 0.00 0.00 0.00 90 1009.5
20260509075947 21 259 0.0 0.0 0.00 0.00 0.00 90 1009.6
20260509075411 21 259 0.0 0.0 0.00 0.00 0.00 90 1009.9
20260509074406 21 259 0.0 0.0 0.00 0.00 0.00 90 1010.1
20260509073940 21 259 0.0 0.0 0.00 0.00 0.00 90 1010.2
20260509073403 21 259 0.0 0.0 0.00 0.00 0.00 90 1010.1
20260509072433 21 260 0.0 0.0 0.00 0.00 0.00 89 1010.1
20260509071959 21 259 0.0 0.0 0.00 0.00 0.00 89 1010.1
20260509071405 21 259 0.0 0.0 0.00 0.00 0.00 89 1010.0
20260509070922 21 259 0.0 0.0 0.00 0.00 0.00 89 1010.0
20260509065853 21 257 0.0 1.6 0.00 0.00 0.00 89 1010.1
20260509065412 21 265 0.0 1.6 0.00 0.00 0.00 89 1010.0
20260509064935 21 246 0.0 1.6 0.00 0.00 0.00 89 1009.9
20260509064415 21 212 0.0 3.2 0.00 0.00 0.00 88 1010.1
20260509063851 21 212 0.0 3.2 0.00 0.00 0.00 88 1009.7
20260509063352 21 275 1.6 3.2 0.00 0.00 0.00 88 1009.2
20260509062905 21 279 0.0 1.6 0.00 0.00 0.00 88 1009.6
20260509062349 21 279 0.0 1.6 0.00 0.00 0.00 87 1010.1
20260509061849 21 256 1.6 1.6 0.00 0.00 0.00 87 1010.0
20260509061419 21 224 0.0 3.2 0.00 0.00 0.00 87 1010.0
20260509060859 21 258 0.0 3.2 0.00 0.00 0.00 87 1010.1
20260509060411 21 245 0.0 0.0 0.00 0.00 0.00 87 1010.4
20260509055853 21 267 0.0 0.0 0.00 0.00 0.00 87 1010.6
20260509055409 21 267 0.0 0.0 0.00 0.00 0.00 87 1010.7
20260509054913 21 268 0.0 0.0 0.00 0.00 0.00 86 1010.8
20260509054417 21 267 0.0 1.6 0.00 0.00 0.00 86 1010.8
20260509053915 21 267 0.0 1.6 0.00 0.00 0.00 86 1010.8
20260509053403 22 271 0.0 0.0 0.00 0.00 0.00 86 1010.9
20260509052912 22 271 0.0 0.0 0.00 0.00 0.00 86 1010.9
20260509052432 22 271 0.0 3.2 0.00 0.00 0.00 86 1010.9
20260509051901 22 271 0.0 3.2 0.00 0.00 0.00 86 1010.7
20260509051358 22 267 0.0 0.0 0.00 0.00 0.00 86 1010.7
20260509050855 22 267 0.0 0.0 0.00 0.00 0.00 86 1010.7
20260509050356 22 266 0.0 0.0 0.00 0.00 0.00 86 1010.6
20260509045923 22 266 0.0 1.6 0.00 0.00 0.00 86 1010.5
20260509045448 22 267 0.0 1.6 0.00 0.00 0.00 86 1010.4
20260509044907 22 265 0.0 1.6 0.00 0.00 0.00 86 1010.3
20260509043903 22 261 0.0 1.6 0.00 0.00 0.00 85 1010.1
20260509043426 22 261 0.0 1.6 0.00 0.00 0.00 85 1010.1
20260509042416 22 248 0.0 1.6 0.00 0.00 0.00 85 1010.0
20260509041414 22 273 0.0 0.0 0.00 0.00 0.00 85 1009.9
20260509040431 22 273 0.0 0.0 0.00 0.00 0.00 84 1009.8
20260509035946 22 273 0.0 0.0 0.00 0.00 0.00 84 1009.7
20260509035355 22 273 0.0 1.6 0.00 0.00 0.00 84 1009.6
20260509034359 22 257 0.0 1.6 0.00 0.00 0.00 84 1009.6
20260509033922 22 271 0.0 0.0 0.00 0.00 0.00 83 1009.7
20260509032913 22 273 0.0 1.6 0.00 0.00 0.00 83 1009.7
20260509032416 22 273 0.0 1.6 0.00 0.00 0.00 83 1009.7
20260509031942 22 288 0.0 3.2 0.00 0.00 0.00 83 1009.7
20260509031347 22 288 0.0 3.2 0.00 0.00 0.00 83 1009.5
20260509030415 22 237 0.0 0.0 0.00 0.00 0.00 82 1009.4
20260509025422 22 264 0.0 0.0 0.00 0.00 0.00 82 1009.3
20260509024941 22 269 0.0 1.6 0.00 0.00 0.00 81 1009.1
20260509023901 22 261 0.0 0.0 0.00 0.00 0.00 81 1009.0
20260509023426 22 277 0.0 3.2 0.00 0.00 0.00 81 1009.0
20260509022931 22 292 0.0 3.2 0.00 0.00 0.00 80 1008.9
20260509022350 22 207 0.0 1.6 0.00 0.00 0.00 80 1008.9
20260509021928 22 211 0.0 1.6 0.00 0.00 0.00 80 1008.8
20260509021440 22 211 0.0 1.6 0.00 0.00 0.00 80 1008.7
20260509020855 22 269 0.0 1.6 0.00 0.00 0.00 80 1008.6
20260509015852 22 265 0.0 1.6 0.00 0.00 0.00 79 1008.6
20260509015422 22 267 0.0 1.6 0.00 0.00 0.00 79 1008.6
20260509014937 22 202 0.0 0.0 0.00 0.00 0.00 78 1008.5
20260509014408 23 202 0.0 3.2 0.00 0.00 0.00 78 1008.4
20260509013944 23 202 0.0 3.2 0.00 0.00 0.00 78 1008.3
20260509013403 23 252 0.0 1.6 0.00 0.00 0.00 78 1008.3
20260509012941 23 248 0.0 0.0 0.00 0.00 0.00 77 1008.3
20260509011905 23 249 0.0 0.0 0.00 0.00 0.00 77 1008.1
20260509010908 23 278 0.0 4.8 0.00 0.00 0.00 76 1008.1
20260509005912 23 250 0.0 0.0 0.00 0.00 0.00 76 1007.9
20260509004907 23 307 0.0 3.2 0.00 0.00 0.00 75 1007.9
20260509004447 23 307 0.0 3.2 0.00 0.00 0.00 75 1008.0
20260509003850 23 259 0.0 1.6 0.00 0.00 0.00 74 1008.0
20260509002914 24 248 0.0 0.0 0.00 0.00 0.00 72 1008.0
20260509001911 25 279 0.0 0.0 0.00 0.00 0.00 71 1007.9
20260509000909 25 279 0.0 1.6 0.00 0.00 0.00 70 1007.9
20260509000440 25 215 0.0 0.0 0.00 0.00 0.00 70 1007.8
20260508235426 25 274 0.0 8.0 0.00 0.00 0.00 70 1007.7
20260508234411 25 248 0.0 4.8 0.00 0.00 0.00 70 1007.7
20260508233413 25 211 1.6 4.8 0.00 0.00 0.00 67 1007.6
20260508232411 25 290 1.6 6.4 0.00 0.00 0.00 67 1007.9
20260508231403 25 223 0.0 9.7 0.00 0.00 0.00 67 1007.9
20260508230421 25 290 1.6 4.8 0.00 0.00 0.00 66 1008.1
20260508225408 25 274 1.6 3.2 0.00 0.00 0.00 65 1008.6
20260508224420 25 265 0.0 1.6 0.00 0.00 0.00 65 1009.0
20260508223411 26 265 0.0 1.6 0.00 0.00 0.00 64 1008.9
20260508222947 26 265 0.0 3.2 0.00 0.00 0.00 63 1008.8
20260508222415 26 259 0.0 3.2 0.00 0.00 0.00 64 1009.0
20260508221938 26 272 0.0 3.2 0.00 0.00 0.00 63 1009.0
20260508221405 26 298 1.6 3.2 0.00 0.00 0.00 64 1008.9
20260508220930 26 280 1.6 3.2 0.00 0.00 0.00 61 1008.6
20260508215918 26 145 0.0 1.6 0.00 0.00 0.00 62 1008.8
20260508215444 26 52 0.0 3.2 0.00 0.00 0.00 64 1008.8
20260508214416 26 91 1.6 4.8 0.00 0.00 0.00 61 1009.4
20260508213408 26 86 0.0 4.8 0.00 0.00 0.00 61 1009.3
20260508212423 27 292 0.0 3.2 0.00 0.00 0.00 60 1009.1
20260508211848 27 279 1.6 3.2 0.00 0.00 0.00 61 1009.0
20260508211418 27 277 0.0 3.2 0.00 0.00 0.00 60 1009.1
20260508210406 27 90 0.0 3.2 0.00 0.00 0.00 60 1009.1
20260508205931 26 284 0.0 3.2 0.00 0.00 0.00 61 1009.0
20260508204922 26 257 0.0 3.2 0.00 0.00 0.00 60 1009.3
20260508203917 27 261 0.0 3.2 0.00 0.00 0.00 59 1009.1
20260508202909 26 259 1.6 4.8 0.00 0.00 0.00 58 1008.9
20260508201917 27 268 1.6 6.4 0.00 0.00 0.00 57 1009.2
20260508200912 26 286 1.6 4.8 0.00 0.00 0.00 57 1009.6
20260508195902 27 263 0.0 3.2 0.00 0.00 0.00 56 1009.8
20260508194914 26 261 0.0 4.8 0.00 0.00 0.00 57 1009.9
20260508193855 26 277 0.0 4.8 0.00 0.00 0.00 56 1010.1
20260508192858 26 123 0.0 4.8 0.00 0.00 0.00 56 1010.1
20260508191902 26 157 1.6 4.8 0.00 0.00 0.00 56 1010.2
20260508190912 26 264 3.2 4.8 0.00 0.00 0.00 57 1010.4
20260508190437 26 246 1.6 4.8 0.00 0.00 0.00 57 1010.5
20260508190001 26 258 3.2 4.8 0.00 0.00 0.00 57 1010.6
20260508185412 26 284 1.6 4.8 0.00 0.00 0.00 57 1010.5
20260508184421 26 238 1.6 6.4 0.00 0.00 0.00 57 1010.6
20260508183357 26 228 0.0 3.2 0.00 0.00 0.00 57 1010.7
20260508181911 26 263 0.0 3.2 0.00 0.00 0.00 59 1011.2
20260508180921 25 275 0.0 4.8 0.00 0.00 0.00 60 1011.4
20260508175918 25 272 0.0 1.6 0.00 0.00 0.00 60 1011.4
20260508174915 25 119 0.0 4.8 0.00 0.00 0.00 62 1011.7
20260508174444 25 199 1.6 4.8 0.00 0.00 0.00 59 1011.8